DW8108 Weather Reports


Display with metric or nautical units.
time (UTC)temp
F
wind
direction
speed
MPH
gust
MPH
rain 1hr
in
rain 24hr
in
rain mn
in
humidity
%
barometer
mb
20260504100111 49 0.0 6.0 0.00 0.10 0.00 86 1005.1
20260504081553 51 0.0 5.0 0.00 0.10 0.00 84 1005.1
20260504080110 51 0.0 7.0 0.00 0.10 0.00 84 1005.2
20260504044524 53 0.0 8.0 0.00 0.10 0.10 78 1006.7
20260504043022 54 0.0 11.0 0.00 0.10 0.10 78 1006.9
20260504041521 54 0.0 9.0 0.00 0.10 0.10 78 1007.0
20260504040036 54 0.0 9.0 0.00 0.10 0.10 77 1007.1
20260504034518 54 0.0 8.0 0.00 0.10 0.10 76 1007.3
20260504033021 55 0.0 7.0 0.00 0.10 0.10 75 1007.4
20260504031519 55 0.0 10.0 0.00 0.10 0.10 74 1007.5
20260504030017 55 0.0 10.0 0.00 0.10 0.10 73 1007.6
20260504024517 56 0.0 9.0 0.00 0.10 0.10 72 1007.4
20260504023016 56 0.0 11.0 0.00 0.10 0.10 72 1007.3
20260504021516 56 0.0 10.0 0.00 0.10 0.10 71 1007.4
20260504020016 57 0.0 8.0 0.00 0.10 0.10 70 1007.5
20260504014522 57 0.0 9.0 0.00 0.10 0.10 69 1007.3
20260504013016 57 0.0 9.0 0.00 0.10 0.10 68 1007.5
20260504011515 58 0.0 7.0 0.00 0.10 0.10 67 1007.4
20260504010014 59 0.0 9.0 0.00 0.10 0.10 66 1007.3
20260504004513 59 0.0 10.0 0.00 0.10 0.10 64 1007.3
20260504003013 60 0.0 11.0 0.00 0.10 0.10 63 1007.3
20260504001512 60 0.0 18.0 0.00 0.10 0.10 62 1007.3
20260504000011 61 0.0 16.0 0.00 0.10 0.10 62 1007.4
20260503234510 61 0.0 16.0 0.00 0.10 0.10 62 1007.4
20260503233009 61 0.0 18.0 0.00 0.10 0.10 61 1007.5
20260503231507 61 0.0 16.0 0.00 0.10 0.10 61 1007.9
20260503230006 61 0.0 16.0 0.00 0.10 0.10 59 1008.1
20260503224507 62 0.0 16.0 0.00 0.10 0.10 59 1008.3
20260503223002 62 0.0 20.0 0.00 0.10 0.10 58 1008.5
20260503221500 61 0.0 17.0 0.00 0.10 0.10 59 1008.6
20260503214559 61 0.0 19.0 0.00 0.10 0.10 57 1008.7
20260503213059 62 0.0 19.0 0.00 0.10 0.10 55 1009.0
20260503211559 63 0.0 23.0 0.00 0.10 0.10 54 1008.9
20260503210056 62 0.0 20.0 0.00 0.10 0.10 57 1009.2
20260503204555 63 0.0 25.0 0.00 0.10 0.10 54 1009.4
20260503203052 63 0.0 25.0 0.00 0.10 0.10 56 1009.4
20260503201550 62 0.0 25.0 0.00 0.10 0.10 58 1009.8
20260503200051 60 0.0 24.0 0.00 0.10 0.10 64 1010.0
20260503194543 58 0.0 18.0 0.00 0.10 0.10 75 1010.4
20260503193043 55 0.0 14.0 0.00 0.10 0.10 85 1010.8
20260503191536 53 0.0 14.0 0.00 0.10 0.10 90 1011.2
20260503190033 51 0.0 8.0 0.02 0.10 0.10 91 1011.8
20260503184529 50 0.0 4.0 0.05 0.10 0.10 89 1012.5
20260503183026 50 0.0 4.0 0.05 0.10 0.10 87 1013.1
20260503181523 50 0.0 5.0 0.08 0.10 0.10 85 1013.7
20260503180026 50 0.0 4.0 0.07 0.07 0.07 84 1014.0
20260503174526 50 0.0 10.0 0.05 0.05 0.05 82 1014.0
20260503173023 51 0.0 9.0 0.05 0.05 0.05 80 1014.2
20260503171522 51 0.0 18.0 0.02 0.02 0.02 74 1014.5